Location: Ferques
(50.8300°N, 1.7599°E)
Time: 17:08:57
(UTC+00:00)

ARIANE 6 FM1 Upper Stage - Pass Details

Date: 19 May 2025
Orbit: 531 x 610 km, 62.0° (Epoch: 12 June)

Event Time Altitude Azimuth Distance (km) Brightness Sun altitude
Rises 21:56:16 0° 248° (WSW) 2,669 6.2 -14.9°
Reaches altitude 10° 21:58:33 10° 256° (WSW) 1,784 5.4 -15.1°
Maximum altitude 22:02:20 40° 327° (NNW) 796 4.0 -15.4°
Drops below altitude 10° 22:06:12 10° 39° (NE) 1,812 5.6 -15.6°
Sets 22:08:32 0° 46° (NE) 2,718 6.4 -15.8°
